Content
SEND FEEDBACK

Daily
Averages
Monthly
Summary
Italy

PARMA, ITALY


Home > Europe > Italy
Elevation: 187 feet     Latitude: 44 48N     Longitude: 010 18E

WEATHER
 
SELECT A DAY
Number of Records: 73,503;   Date Range: 9/14/00 - 9/15/14
 
SHARE

PRINT THIS DATA

[ ← Previous Day ]
WEATHER ALMANAC - OCTOBER 18, 2013
[ Next Day → ]
[ °C ]   °F
Weather ElementAverageHighLow
Temperature55.1 °F62.6 °F (3:50 pm)46.4 °F (7:50 am)
Dewpoint52.3 °F57.2 °F (2:50 pm)44.6 °F (7:50 am)
Humidity90.8 %100 % (8:50 am)72 % (4:50 pm)
Barometer30.07 in30.12 in (10:50 pm)30.04 in (6:50 am)
Wind Speed3.5 mph5.8 mph (9:50 am)
Weather ElementAverage
Visibility2.6 mi
Wind DirectionENE (58.5 °)

Weather ElementTotal
Precipitation---
Heating Degree Days10.5 (Base 65)
Growing Degree Days4.5 (Base 50)
Averaged from 20 records on October 18, 2013
WEATHER CONDITIONS BREAKOUT
WIND DIRECTION BREAKOUT
WEATHER BY HOUR - OCTOBER 18, 2013
[ °C ]   °F
Local TimeTemperatureDewpointHumidityBarometerVisibilityWind DirectionWind SpeedGust SpeedPrecipitationEventsConditions
6:50 AM48.2 °F46.4 °F93 %30.04 in4.3 miVariable2.3 mph
7:50 AM46.4 °F44.6 °F93 %30.04 in4.3 miVariable3.5 mphMostly Cloudy
8:50 AM48.2 °F48.2 °F100 %30.06 in2.5 miWest (270°)4.6 mphPartly Cloudy
9:19 AM50.0 °F48.2 °F94 %30.06 in3.1 miVariable3.5 mphMist
9:50 AM50.0 °F50.0 °F100 %30.06 in3.7 miWest (260°)5.8 mph
10:23 AM53.6 °F50.0 °F88 %30.06 in2.5 miVariable3.5 mphScattered Clouds
10:50 AM53.6 °F51.8 °F94 %30.09 in0.6 miWest (270°)4.6 mphScattered Clouds
11:50 AM55.4 °F53.6 °F94 %30.09 in2.5 miNorth (360°)4.6 mphMist
12:50 PM57.2 °F55.4 °F94 %30.09 in2.5 miVariable3.5 mphMist
1:50 PM59.0 °F55.4 °F88 %30.06 in1.9 miNorth (10°)4.6 mphMist
2:50 PM60.8 °F57.2 °F88 %30.06 in2.5 miVariable3.5 mphMist
3:50 PM62.6 °F57.2 °F82 %30.06 in2.5 miVariable3.5 mphMist
4:50 PM62.6 °F53.6 °F72 %30.06 in3.1 miVariable3.5 mphMist
5:50 PM60.8 °F53.6 °F77 %30.06 in3.1 miVariable3.5 mphMist
6:50 PM57.2 °F53.6 °F88 %30.06 in2.5 miVariable3.5 mphMist
7:50 PM55.4 °F53.6 °F94 %30.06 in2.5 miVariable2.3 mphMist
8:50 PM57.2 °F53.6 °F88 %30.09 in2.5 miVariable3.5 mphScattered Clouds
9:50 PM57.2 °F55.4 °F94 %30.09 in2.5 miVariable1.2 mphMist
10:50 PM53.6 °F53.6 °F100 %30.12 in2.5 miVariable2.3 mphMist
11:50 PM53.6 °F51.8 °F94 %30.12 in0.5 miVariable3.5 mphFogFog
Hourly data recorded from LIMP, located miles away from Parma, Italy







STORIES FROM OUR PARTNERS